User: anonymous   Login
Location: Unspecified
(0.0000°N, 0.0000°E)
Time: 03:46:06
(UTC+02:00)
Language:

Cosmos 1538 Rocket - Orbit

View from above orbital plane
View from above orbital plane
View from above satellite
View from above satellite

Ground track
Ground track

The orbit data is extracted from the following two-line orbital elements,

1 14760U 84019B   18110.90373465 -.00000051  00000-0 -87243-5 0  9995
2 14760  74.0404 277.3452 0027117  60.6933 299.6925 14.35839457787748
Epoch (UTC): 20 April 2018 21:41:22
Eccentricity: 0.0027117
inclination: 74.0404°
perigee height: 753 km
apogee height: 791 km
right ascension of ascending node: 277.3452°
argument of perigee: 60.6933°
revolutions per day: 14.35839457
mean anomaly at epoch: 299.6925°
orbit number at epoch: 78774

The dashed part of the orbit path shows where the satellite is in the earth's shadow,  

DLR